Temp
13 12 12 12 12 12 12 12 12 12 12 12 12 12 12 11 11 11 11 10 10 10 10 10 11 11 11 11 11 11 11 11 11 11 11 11 11 11 11 11 11 11
13 13 12 12 12 12 12 12 12 12 12 12 12 12 11 11 11 11 11 11 11 11 10 11 11 11 11 11 11 11 11 11 11 11 11 11 11 11 12 11 11 11
13 13 13 13 13 12 12 12 12 12 12 12 12 12 11 11 11 11 11 11 11 11 11 11 11 11 11 11 11 11 11 11 11 11 11 11 11 11 12 12 12 11
13 13 13 13 13 12 12 12 12 12 12 12 12 12 12 11 11 11 12 12 12 11 11 11 11 11 11 12 12 11 11 11 11 11 11 11 11 11 11 12 12 12
13 13 13 13 13 12 12 12 12 12 12 12 12 12 12 12 11 11 12 12 12 12 12 12 11 11 12 12 12 12 12 12 11 12 11 11 11 11 11 12 12 12
14 13 13 13 13 13 12 12 12 12 12 12 12 12 12 12 12 12 12 12 12 12 12 12 12 12 12 12 12 12 12 12 12 12 12 12 11 11 12 12 12 12
14 14 13 13 13 13 13 13 13 13 12 12 12 12 12 12 12 12 12 12 12 11 12 12 12 12 12 12 12 12 12 12 12 12 12 12 12 12 12 12 12 12
14 14 14 13 13 13 13 13 13 13 12 12 12 12 12 12 12 12 12 12 12 12 12 12 12 12 12 12 12 12 12 12 12 13 12 12 12 12 12 12 12 12
14 14 14 14 13 13 13 13 13 13 13 12 12 12 12 12 12 12 12 12 12 12 12 12 12 12 12 12 12 12 12 12 12 13 13 13 13 13 12 12 12 12
15 14 14 14 14 13 13 13 13 13 13 13 12 12 12 12 13 12 12 12 12 12 12 12 12 12 12 12 13 13 13 13 13 13 13 13 13 13 13 13 13 13
15 15 14 14 14 14 13 13 13 13 13 13 13 13 13 13 13 13 13 13 13 13 13 13 13 13 13 13 13 13 13 13 13 13 13 13 13 13 13 13 13 13
15 15 15 14 14 14 14 13 13 13 13 13 13 13 13 13 13 13 13 13 13 13 13 13 13 13 13 13 13 13 13 13 13 13 13 13 13 13 13 13 13 13
15 15 15 15 14 14 14 14 14 13 13 13 13 13 13 13 13 13 13 13 13 13 13 13 13 13 13 13 13 13 13 13 13 13 13 13 13 13 13 13 13 13
15 15 15 15 15 14 14 14 14 14 14 13 13 13 13 13 13 13 13 13 13 13 13 13 13 13 13 13 13 13 13 14 14 14 14 14 13 13 13 13 13 13
16 16 15 15 15 15 15 14 14 14 14 14 14 14 13 13 13 13 14 14 14 14 14 14 14 14 14 14 14 14 14 14 14 14 14 14 14 14 13 13 13 13
16 16 16 16 15 15 15 15 15 14 14 14 14 14 14 14 14 14 14 14 14 14 14 14 14 14 14 14 14 14 14 14 14 14 14 14 14 14 14 14 13 13
16 16 16 16 16 16 15 15 15 15 15 14 14 14 14 14 14 14 14 14 14 14 14 15 15 15 15 14 14 14 14 14 14 14 14 14 14 14 14 14 14 13
16 16 16 16 16 16 16 16 15 15 15 15 15 15 14 14 14 14 14 15 15 15 15 15 15 15 15 14 14 14 14 14 14 14 14 14 14 14 14 14 14 14
16 16 16 16 16 16 16 16 15 15 15 15 15 15 15 15 15 15 15 15 15 15 15 15 15 15 15 14 14 14 14 14 14 14 14 14 14 14 14 14 14 14
17 16 16 16 16 16 16 16 16 16 16 16 15 15 15 15 15 15 15 15 15 15 15 15 15 15 14 14 14 14 14 14 14 14 14 14 14 14 14 14 14 14
17 17 16 16 16 16 16 16 16 16 16 16 16 16 16 15 15 15 15 15 15 15 15 15 15 15 14 14 14 14 14 14 14 14 14 14 14 14 14 14 14 14
17 17 16 16 16 16 16 16 16 16 16 16 16 16 16 16 15 15 15 15 15 15 15 15 15 15 14 14 14 14 14 14 14 14 14 14 14 14 14 14 14 14
17 17 17 16 16 16 16 16 15 15 15 15 15 15 15 16 16 15 15 15 15 15 15 16 15 15 15 14 14 14 14 14 14 14 14 14 15 15 15 15 15 15
18 18 17 17 16 16 16 16 15 15 15 15 15 15 15 15 15 15 15 15 15 15 15 16 15 15 15 15 15 15 14 14 14 15 15 15 15 15 15 15 15 15
18 18 18 17 17 16 16 16 16 15 15 15 15 15 15 15 15 15 15 15 15 15 15 15 15 15 15 15 15 15 15 15 15 15 15 15 15 15 15 15 15 15
18 19 18 18 17 17 16 16 16 16 15 16 16 15 15 15 15 15 16 16 16 16 15 15 15 15 15 15 15 15 15 15 15 15 16 15 15 16 16 16 16 16
Height
3193 3195 3197 3199 3201 3203 3205 3206 3208 3210 3212 3213 3215 3216 3217 3217 3218 3218 3219 3220 3221 3222 3223 3224 3224 3225 3226 3227 3228 3228 3229 3230 3230 3231 3231 3232 3232 3233 3233 3234 3234 3234
3191 3193 3195 3197 3198 3201 3202 3204 3206 3208 3210 3212 3213 3215 3215 3216 3216 3217 3218 3219 3220 3221 3221 3222 3223 3224 3225 3226 3226 3227 3228 3228 3229 3230 3230 3231 3231 3232 3232 3233 3233 3234
3188 3190 3192 3194 3196 3199 3201 3203 3204 3206 3208 3210 3211 3213 3213 3214 3215 3216 3217 3217 3218 3219 3220 3221 3222 3223 3224 3225 3225 3226 3227 3228 3228 3229 3229 3230 3230 3231 3231 3232 3233 3233
3186 3188 3190 3192 3195 3197 3199 3200 3202 3204 3206 3207 3209 3211 3212 3213 3214 3214 3215 3216 3217 3218 3219 3220 3221 3222 3223 3224 3224 3225 3226 3227 3227 3228 3228 3229 3229 3230 3230 3231 3232 3232
3184 3186 3188 3190 3193 3195 3196 3198 3200 3202 3204 3206 3208 3209 3210 3211 3212 3213 3214 3215 3216 3217 3218 3219 3220 3220 3222 3222 3223 3224 3225 3225 3226 3227 3227 3228 3228 3229 3229 3230 3231 3231
3181 3183 3186 3188 3190 3192 3194 3196 3198 3200 3202 3204 3206 3207 3209 3210 3211 3212 3213 3214 3215 3216 3217 3218 3219 3219 3220 3221 3222 3223 3223 3224 3225 3226 3226 3227 3227 3227 3228 3229 3229 3230
3179 3181 3184 3186 3188 3189 3191 3194 3196 3198 3200 3202 3203 3205 3207 3208 3210 3211 3212 3213 3214 3215 3216 3217 3218 3219 3219 3220 3221 3222 3222 3223 3224 3224 3225 3225 3226 3226 3227 3227 3228 3229
3177 3180 3182 3184 3185 3186 3188 3191 3193 3196 3198 3200 3201 3203 3204 3206 3208 3210 3211 3212 3213 3213 3215 3216 3217 3217 3218 3219 3220 3220 3221 3222 3222 3223 3224 3224 3224 3225 3225 3226 3226 3227
3176 3178 3180 3181 3182 3184 3186 3188 3191 3193 3195 3197 3199 3201 3202 3204 3206 3208 3209 3210 3211 3212 3213 3214 3215 3216 3217 3218 3218 3219 3220 3221 3221 3222 3222 3223 3223 3224 3224 3224 3225 3225
3173 3175 3177 3178 3179 3181 3184 3186 3188 3191 3192 3194 3197 3198 3200 3202 3204 3205 3207 3208 3209 3210 3212 3213 3214 3215 3216 3216 3217 3218 3219 3219 3220 3220 3221 3222 3222 3222 3223 3223 3223 3224
3171 3173 3174 3175 3177 3179 3182 3184 3186 3188 3190 3192 3194 3196 3198 3200 3201 3203 3204 3206 3207 3209 3210 3211 3212 3214 3214 3215 3216 3216 3217 3218 3218 3219 3219 3220 3221 3221 3221 3221 3222 3222
3168 3171 3172 3174 3176 3177 3180 3182 3184 3185 3187 3189 3191 3193 3195 3197 3198 3200 3202 3204 3205 3207 3208 3209 3211 3212 3212 3213 3214 3215 3215 3216 3216 3217 3217 3218 3219 3219 3220 3220 3220 3221
3166 3169 3171 3173 3174 3176 3178 3180 3182 3183 3185 3187 3189 3191 3192 3194 3196 3198 3199 3201 3203 3205 3206 3207 3208 3209 3210 3211 3212 3213 3213 3214 3214 3215 3216 3216 3217 3217 3217 3218 3218 3219
3164 3167 3169 3171 3173 3174 3176 3178 3179 3181 3183 3185 3187 3188 3190 3191 3193 3195 3197 3199 3201 3202 3204 3205 3205 3206 3207 3209 3210 3211 3211 3212 3212 3213 3214 3214 3215 3215 3215 3215 3216 3216
3162 3165 3167 3169 3170 3172 3173 3175 3177 3179 3181 3183 3184 3185 3187 3189 3191 3193 3195 3196 3198 3199 3201 3202 3202 3203 3205 3206 3207 3209 3210 3210 3211 3211 3211 3212 3212 3213 3213 3213 3213 3214
3161 3163 3165 3166 3168 3169 3171 3173 3175 3176 3178 3180 3182 3183 3185 3187 3189 3190 3192 3193 3195 3196 3198 3199 3199 3201 3202 3204 3205 3206 3207 3208 3208 3209 3209 3209 3209 3210 3210 3211 3211 3211
3159 3161 3162 3164 3165 3167 3169 3171 3172 3174 3176 3177 3179 3181 3183 3185 3186 3188 3189 3191 3192 3194 3195 3196 3197 3198 3200 3202 3203 3204 3205 3205 3206 3206 3207 3207 3207 3207 3207 3208 3208 3208
3157 3159 3160 3162 3163 3165 3167 3169 3170 3172 3173 3175 3177 3179 3181 3183 3184 3185 3187 3189 3190 3191 3192 3193 3194 3196 3198 3199 3201 3202 3203 3203 3203 3203 3204 3204 3204 3204 3204 3205 3205 3205
3155 3157 3158 3160 3162 3163 3165 3167 3168 3169 3171 3172 3174 3177 3178 3180 3181 3183 3185 3186 3187 3188 3190 3191 3192 3194 3196 3197 3198 3199 3200 3201 3201 3201 3201 3201 3201 3201 3202 3202 3202 3202
3153 3154 3156 3158 3160 3161 3163 3164 3165 3167 3169 3170 3172 3174 3175 3177 3179 3180 3182 3183 3185 3186 3187 3188 3190 3192 3193 3195 3196 3197 3198 3198 3198 3198 3198 3198 3198 3198 3199 3199 3199 3199
3150 3152 3153 3155 3157 3159 3160 3161 3163 3165 3166 3168 3170 3171 3172 3174 3176 3178 3179 3181 3182 3183 3185 3186 3187 3189 3191 3192 3193 3195 3196 3195 3195 3195 3195 3195 3195 3195 3195 3195 3196 3195
3148 3149 3150 3152 3154 3156 3157 3159 3161 3162 3164 3166 3167 3169 3170 3172 3173 3175 3176 3178 3179 3181 3182 3182 3184 3186 3188 3189 3191 3192 3193 3192 3192 3192 3192 3191 3191 3192 3192 3191 3191 3191
3145 3146 3148 3149 3151 3152 3153 3155 3158 3160 3162 3163 3165 3166 3167 3169 3171 3172 3174 3176 3177 3178 3178 3179 3181 3183 3184 3186 3187 3188 3189 3189 3189 3189 3189 3188 3188 3188 3188 3187 3187 3187
3142 3143 3145 3146 3147 3149 3150 3152 3154 3156 3159 3160 3162 3163 3164 3166 3168 3170 3171 3173 3174 3175 3176 3177 3178 3179 3180 3181 3183 3184 3185 3185 3185 3185 3185 3184 3185 3185 3184 3184 3184 3184
3139 3141 3142 3144 3145 3146 3148 3149 3151 3153 3155 3157 3158 3160 3161 3163 3165 3166 3167 3169 3170 3172 3173 3174 3174 3176 3177 3177 3178 3179 3180 3180 3180 3180 3180 3180 3181 3181 3181 3180 3180 3180
3137 3138 3140 3141 3142 3144 3145 3147 3148 3150 3151 3153 3154 3156 3158 3159 3161 3162 3163 3165 3166 3168 3169 3170 3171 3172 3173 3173 3174 3175 3175 3175 3175 3175 3175 3175 3176 3175 3175 3175 3175 3175
Wind_Speed
27 26 25 24 24 24 24 23 21 20 19 17 16 16 15 14 14 15 15 14 14 14 13 13 13 12 12 11 10 10 10 9 8 8 8 8 8 7 7 7 7 6
28 27 26 25 24 24 24 23 22 21 20 17 16 16 16 16 16 16 16 17 16 15 14 13 12 12 11 11 11 11 10 10 9 9 9 10 10 9 8 8 8 7
28 28 27 26 25 24 24 23 23 22 20 19 18 17 17 18 18 17 17 17 16 15 15 13 12 11 10 10 10 10 10 10 10 10 10 11 11 10 10 9 9 9
29 28 27 26 25 24 23 23 24 23 21 20 18 18 18 18 19 17 16 16 16 15 14 13 12 11 9 9 9 9 10 10 10 10 11 11 11 11 11 10 10 10
29 29 28 26 25 24 24 24 23 23 21 20 18 18 19 19 19 18 16 15 14 13 13 13 12 10 9 8 7 8 8 9 10 10 10 11 11 12 12 12 11 11
29 29 28 27 26 25 25 24 22 21 21 20 19 19 19 19 20 19 17 14 13 13 12 11 10 9 7 6 5 6 7 7 9 10 10 11 12 13 14 14 13 12
30 30 28 27 27 26 25 23 22 21 20 20 21 20 19 20 20 19 17 15 14 12 11 10 9 8 6 5 5 4 5 5 6 7 9 11 12 13 13 13 13 13
30 30 29 28 28 27 26 25 23 22 21 21 21 20 19 19 20 19 18 17 16 14 12 11 9 7 6 6 5 4 4 3 3 4 5 8 10 11 12 13 13 14
30 30 30 29 29 29 27 26 24 22 22 22 21 20 20 19 20 20 19 18 17 16 15 13 11 9 8 6 5 4 4 3 2 2 3 4 5 7 10 12 13 14
31 32 32 31 31 30 28 26 25 24 23 22 21 21 21 20 20 21 21 20 19 17 16 15 13 12 10 9 7 6 6 5 5 4 3 3 3 5 7 9 11 12
30 32 32 33 32 30 29 27 25 25 24 23 22 21 21 20 21 22 23 22 20 19 17 16 14 14 13 11 10 9 9 9 8 8 7 6 6 6 7 7 9 10
30 31 32 32 32 31 29 28 26 26 25 24 22 22 21 21 21 22 22 22 20 19 18 17 17 16 15 14 13 12 12 12 11 11 10 10 9 9 9 9 10 9
29 30 30 31 31 30 29 28 28 27 26 25 23 23 22 21 21 22 21 21 19 18 18 18 18 18 17 17 16 15 15 14 13 13 12 12 12 12 13 13 13 12
26 27 28 29 29 29 29 29 28 28 27 25 25 24 24 22 22 21 21 21 20 19 19 18 18 19 19 18 18 17 16 15 14 14 14 14 15 15 16 16 16 16
22 23 25 26 27 28 28 28 28 28 27 27 26 26 25 24 23 22 22 22 21 21 21 20 20 19 18 18 17 16 16 15 15 15 16 16 17 18 18 19 19 19
20 20 21 23 24 25 26 27 28 28 28 28 27 27 26 25 24 23 23 22 21 21 22 22 21 19 17 17 16 16 16 16 16 16 17 18 19 19 20 20 20 21
20 20 20 20 21 23 24 25 26 27 28 28 27 27 26 26 25 24 23 22 21 21 21 21 20 18 17 17 16 16 16 17 17 18 19 20 20 20 20 20 20 21
23 22 21 20 20 21 22 23 25 27 27 27 27 27 26 26 26 25 24 22 21 21 21 21 19 18 17 17 17 17 17 18 19 19 19 19 19 19 19 18 19 19
26 25 23 22 21 20 20 22 24 25 26 26 26 26 26 26 26 25 24 22 22 21 21 20 19 18 18 18 17 17 18 19 20 19 20 19 19 19 19 19 19 19
28 28 27 25 24 22 22 22 23 23 24 24 25 25 26 25 25 24 23 23 22 21 21 21 20 19 18 18 17 17 17 19 20 20 21 21 21 21 21 21 20 21
30 30 30 29 28 26 25 25 24 23 23 23 24 24 24 24 23 23 23 23 22 22 21 21 20 19 18 18 18 17 18 20 21 23 23 24 24 24 24 24 24 24
27 29 31 32 31 31 30 28 26 25 24 23 23 24 23 23 23 23 23 23 23 23 23 23 21 20 20 20 20 20 21 23 24 25 26 26 26 26 27 27 27 27
21 24 27 30 32 33 34 33 31 29 27 26 26 25 25 24 24 24 24 24 24 24 24 24 23 23 23 23 23 23 24 26 27 27 28 28 28 28 28 28 29 29
15 18 22 25 29 31 33 34 34 34 32 30 29 28 28 27 26 26 26 26 26 26 26 26 25 25 26 26 27 27 28 29 29 29 30 29 29 29 29 30 30 30
14 15 18 22 25 26 27 29 31 34 35 35 34 33 32 31 30 30 29 28 28 28 28 28 28 28 28 29 30 30 30 30 31 31 31 31 31 31 30 31 31 31
16 15 16 20 22 23 23 24 25 28 31 34 36 37 36 36 35 34 32 31 30 30 30 30 30 31 31 32 32 32 32 33 33 33 33 32 32 32 32 32 32 32
Wind_Direction
212 214 215 215 214 213 215 217 219 219 219 220 220 223 228 227 223 222 221 218 215 213 213 214 215 215 211 207 205 200 195 190 187 190 195 200 200 196 198 202 206 204
212 214 215 215 214 213 212 214 217 219 218 216 215 217 221 223 223 219 217 216 214 213 213 212 211 213 210 207 205 203 199 196 196 196 197 203 207 206 204 204 208 211
213 214 215 215 214 214 214 214 216 218 219 215 212 213 216 219 223 221 217 216 214 212 214 215 212 211 210 205 202 202 200 198 202 201 199 205 211 211 213 212 211 214
212 214 215 215 215 216 217 217 217 218 220 218 212 211 212 216 221 223 219 216 215 212 213 215 215 213 210 204 197 195 195 195 202 204 200 204 210 213 218 220 216 216
211 213 215 216 217 218 219 219 218 218 220 220 216 212 211 212 217 222 220 214 212 212 211 213 216 219 217 208 196 191 192 192 198 204 203 204 210 213 217 220 221 220
211 212 213 215 216 217 219 220 219 219 220 220 219 216 213 212 214 218 217 211 206 207 207 205 203 205 208 203 191 183 185 190 196 202 203 206 212 214 216 218 220 224
212 212 212 213 214 215 217 217 217 218 219 220 221 220 216 213 213 214 212 206 202 200 200 197 188 184 186 186 177 167 169 176 186 195 201 209 215 217 219 218 218 223
213 213 213 213 213 214 214 214 215 216 218 221 223 224 221 216 213 212 210 205 201 198 198 200 195 191 193 189 178 173 171 165 164 174 189 206 217 221 224 225 223 222
214 213 213 213 214 215 214 214 215 216 218 222 223 226 226 221 215 213 212 209 204 200 199 202 203 206 210 208 200 199 202 202 199 186 181 195 208 218 225 230 231 229
216 215 214 215 215 216 215 215 216 217 220 222 223 226 227 224 219 216 215 214 211 208 205 204 206 210 216 217 219 227 232 239 243 240 235 224 213 217 225 232 235 235
218 217 217 217 216 217 216 216 217 218 221 223 224 226 226 225 223 219 218 217 215 213 212 211 212 216 222 223 225 232 238 246 251 252 255 255 252 249 246 245 242 238
220 220 220 220 219 219 218 217 218 219 221 223 225 227 228 227 226 223 222 221 219 216 214 213 215 219 224 227 230 235 239 244 250 256 262 265 268 270 269 266 262 253
219 221 223 223 223 222 221 220 220 220 222 223 225 229 230 230 230 228 227 226 225 223 218 215 217 219 222 225 230 235 240 244 249 255 262 268 273 276 277 277 274 269
217 221 224 226 226 226 225 224 224 223 224 225 226 230 232 232 233 232 231 230 229 229 227 225 225 224 222 224 227 233 238 244 251 258 264 269 273 276 277 279 278 276
213 218 222 225 226 227 227 227 227 227 227 227 228 230 232 233 235 234 233 231 230 231 231 232 232 229 226 226 229 234 240 247 255 263 269 272 275 276 276 276 278 278
212 216 220 222 224 226 227 227 228 229 229 229 229 231 231 233 234 235 234 231 230 231 232 233 233 231 231 232 236 241 248 255 261 266 271 274 275 275 275 275 276 277
214 215 217 220 223 225 226 227 228 229 231 231 231 231 231 232 232 234 234 232 230 231 231 232 232 232 235 239 244 250 257 263 267 270 272 273 273 273 274 275 276 276
215 216 217 218 221 224 225 226 227 229 231 232 232 232 232 232 232 233 233 233 232 231 231 231 232 234 240 244 249 254 260 265 268 270 271 271 272 273 275 277 278 279
217 217 218 218 219 222 225 227 227 229 231 232 233 233 234 234 234 233 234 234 233 231 229 231 234 237 242 247 251 254 258 261 263 265 267 269 271 274 277 279 281 283
220 220 219 219 220 221 223 226 227 228 231 232 233 234 234 234 234 233 232 232 232 231 231 234 236 239 243 247 249 251 254 258 261 263 266 269 273 276 279 281 283 284
221 222 222 221 221 222 223 224 225 226 228 229 231 233 233 232 232 231 230 230 231 233 235 235 237 240 244 245 247 251 255 259 263 266 270 273 276 279 282 284 285 285
216 220 223 224 223 224 224 224 224 225 226 227 229 231 232 231 229 228 228 229 231 234 236 236 238 242 246 248 251 254 257 261 264 268 272 274 276 279 280 282 282 283
208 212 217 222 224 226 227 226 226 226 226 227 228 230 232 233 232 231 231 232 233 236 237 238 241 246 250 252 255 257 259 262 266 269 271 272 274 276 278 279 281 282
211 206 207 213 219 224 226 228 228 228 228 228 229 230 232 234 235 236 237 237 238 239 241 243 246 250 253 256 258 261 263 265 267 269 269 269 271 273 275 277 278 280
228 217 208 207 211 216 220 224 227 229 230 230 231 232 233 235 236 238 240 241 242 243 244 246 249 252 255 258 261 264 267 268 269 270 269 270 273 274 276 277 278 280
237 231 221 214 210 210 211 215 220 224 227 230 232 233 235 236 237 240 242 243 244 246 247 249 251 253 256 259 262 266 268 270 271 271 272 275 278 279 280 281 283 285